Weather in Krasnensky

Russia / Kaluga Oblast     53°33′16″N   35°10′19″E
temp.,
°C
wind,
m/s
gust,
m/s
humid.,
%
clouds,
%
prec.,
mm/h
press.,
hPa
HPBL,
m
13 april, tue
tue1300:00+12se4157312 0.0 1022367
03:00+9se31088100 0.0 1023186
06:00+8se269199 0.0 1023111
09:00+13se366890 0.0 1023307
12:00+18sse585061 0.0 10221056
15:00+19sse594298 0.0 10212133
18:00+16se385364 0.0 1020530
21:00+13se226766 0.0 102023
14 april, wed
wed1400:00+10sse237824 0.0 102066
03:00+9se24905 0.0 102077
06:00+8se269355 0.0 1019146
09:00+13sse367267 0.0 1018462
12:00+17se355786 0.0 10171386
15:00+18se4638100 0.1 10151539
18:00+14sw476992 0.0 1016401
21:00+11se2585100 0.1 1016144
15 april, thu
thu1500:00+9se228790 0.0 101626
03:00+8se2494100 0.0 101680
06:00+8se2294100 0.0 101654
09:00+12s1276100 0.0 1015215
12:00+11nw0181100 0.2 101575
15:00+12se4880100 1.8 1014576
18:00+12ssw238399 1.1 101488
21:00+10wsw11887 1.4 101410
16 april, fri
fri1600:00+7nne11945 0.0 101410
03:00+7e2293100 0.0 101419
06:00+7sse0095100 0.1 101410
09:00+10ne2589100 0.5 1015219
12:00+12ese3679100 1.3 1015682
15:00+10e259098 1.9 1016210
18:00+13ne127997 0.2 1016147
21:00+9ne2393100 0.9 101855
17 april, sat
sat1700:00+10ene41291100 0.7 1019515
03:00+9ne51290100 1.3 1019550
06:00+7ne51291100 0.1 1021656
09:00+8ene6128399 0.1 1022728
12:00+11ene6116884 0.0 10231127
15:00+14ene6105219 0.0 10231540
18:00+12ene611492 0.0 10241443
21:00+8ne413610 0.0 1027579